TimeCDT,TemperatureF,Dew PointF,Humidity,Sea Level PressureIn,VisibilityMPH,Wind Direction,Wind SpeedMPH,Gust SpeedMPH,PrecipitationIn,Events,Conditions,WindDirDegrees,DateUTC
12:53 AM,71.1,64.0,78,30.14,10.0,East,3.5,-,N/A,,Clear,100,2012-10-11 05:53:00
1:53 AM,71.1,66.9,87,30.14,9.0,East,3.5,-,N/A,,Clear,100,2012-10-11 06:53:00
2:53 AM,70.0,66.0,87,30.14,9.0,Variable,4.6,23.0,N/A,,Clear,0,2012-10-11 07:53:00
3:53 AM,70.0,66.9,90,30.14,9.0,Calm,Calm,-,N/A,,Clear,0,2012-10-11 08:53:00
4:53 AM,71.1,68.0,90,30.14,9.0,East,4.6,-,N/A,,Clear,90,2012-10-11 09:53:00
5:53 AM,71.1,68.0,90,30.15,8.0,ENE,6.9,-,N/A,,Clear,70,2012-10-11 10:53:00
6:53 AM,69.1,64.9,87,30.17,8.0,East,9.2,-,N/A,,Clear,80,2012-10-11 11:53:00
7:53 AM,69.1,66.0,90,30.18,8.0,East,10.4,-,N/A,,Clear,80,2012-10-11 12:53:00
8:53 AM,71.1,66.0,84,30.20,7.0,East,5.8,-,N/A,,Clear,80,2012-10-11 13:53:00
9:53 AM,73.9,66.9,79,30.22,7.0,ENE,5.8,-,N/A,,Clear,60,2012-10-11 14:53:00
10:53 AM,75.0,66.9,76,30.23,7.0,NE,6.9,-,N/A,,Clear,40,2012-10-11 15:53:00
11:53 AM,75.9,68.0,76,30.22,7.0,NNE,9.2,-,N/A,,Clear,30,2012-10-11 16:53:00
12:53 PM,79.0,66.0,64,30.19,10.0,ESE,8.1,-,N/A,,Clear,110,2012-10-11 17:53:00
1:53 PM,80.1,64.0,58,30.17,10.0,East,8.1,-,N/A,,Clear,90,2012-10-11 18:53:00
2:53 PM,81.0,63.0,54,30.16,10.0,ESE,8.1,-,N/A,,Partly Cloudy,120,2012-10-11 19:53:00
3:53 PM,82.0,59.0,45,30.16,10.0,ESE,9.2,-,N/A,,Clear,110,2012-10-11 20:53:00
4:53 PM,80.6,60.8,51,30.17,10.0,SE,9.2,-,N/A,,Clear,130,2012-10-11 21:53:00
5:53 PM,79.0,61.0,54,30.15,10.0,SE,10.4,-,N/A,,Clear,130,2012-10-11 22:53:00
6:53 PM,75.9,62.1,62,30.16,10.0,SE,8.1,-,N/A,,Clear,140,2012-10-11 23:53:00
7:53 PM,73.4,64.4,73,30.19,10.0,South,5.8,-,N/A,,Clear,170,2012-10-12 00:53:00
8:53 PM,72.0,64.9,78,30.19,9.0,SE,4.6,-,N/A,,Clear,140,2012-10-12 01:53:00
9:53 PM,71.1,64.9,81,30.19,8.0,Calm,Calm,-,N/A,,Clear,0,2012-10-12 02:53:00
10:53 PM,72.0,64.9,78,30.19,8.0,Calm,Calm,-,N/A,,Clear,0,2012-10-12 03:53:00
11:53 PM,71.1,66.0,84,30.19,9.0,East,3.5,-,N/A,,Clear,100,2012-10-12 04:53:00